WetterOnline ( https://www.wetteronline.de )

Wetter aktuell Karlsbad

Aktuelles Wetter: Rheinstetten (116m)

6-stündlich | Neueste Meldungen
Ortszeit Temperatur Wetter
Di, 17.05. 8:00 16.7° C leicht bewölkt
Di, 17.05. 2:00 12.6° C wolkenlos
Mo, 16.05. 20:00 21.2° C bedeckt
Mo, 16.05. 14:00 18.5° C wolkig
Mo, 16.05. 8:00 16.1° C bedeckt
Mo, 16.05. 2:00 13.4° C bewölkt
So, 15.05. 20:00 25.2° C leicht bewölkt
So, 15.05. 14:00 26.5° C leicht bewölkt
Ortszeit Temperatur Wetter
Di, 17.05. 10:00 20.8° C bedeckt
Di, 17.05. 9:50 20.8° C bedeckt
Di, 17.05. 9:40 20.6° C bedeckt
Di, 17.05. 9:30 20.5° C bewölkt
Di, 17.05. 9:20 20.5° C bewölkt
Di, 17.05. 9:10 20.5° C bedeckt
Di, 17.05. 9:00 19.1° C leicht bewölkt
Di, 17.05. 8:30 18.2° C leicht bewölkt
Di, 17.05. 8:00 16.7° C leicht bewölkt
Di, 17.05. 7:30 14.5° C wolkig
Di, 17.05. 7:00 13.0° C wolkig
Ortszeit Relative Feuchte Sichtweite
Di, 17.05. 8:00 72% 35 km
Di, 17.05. 2:00 96% 18 km
Mo, 16.05. 20:00 60% 55 km
Mo, 16.05. 14:00 80% 55 km
Mo, 16.05. 8:00 85% 35 km
Mo, 16.05. 2:00 82% 50 km
So, 15.05. 20:00 37% 65 km
So, 15.05. 14:00 35% 55 km
Ortszeit Relative Feuchte Sichtweite
Di, 17.05. 10:00 61% 45 km
Di, 17.05. 9:50 61% -
Di, 17.05. 9:40 61% -
Di, 17.05. 9:30 62% 40 km
Di, 17.05. 9:20 62% -
Di, 17.05. 9:10 64% -
Di, 17.05. 9:00 67% 55 km
Di, 17.05. 8:30 70% 35 km
Di, 17.05. 8:00 72% 35 km
Di, 17.05. 7:30 83% 45 km
Di, 17.05. 7:00 89% 30 km
Ortszeit Niederschlagsmenge Niederschlagsart
Di, 17.05. 8:00 0.0 l/m2 in 12 Std. -
Di, 17.05. 2:00 0.0 l/m2 in 6 Std. -
Mo, 16.05. 20:00 0.1 l/m2 in 12 Std. Regen
Mo, 16.05. 14:00 0.1 l/m2 in 6 Std. Regen
Mo, 16.05. 8:00 0.1 l/m2 in 12 Std. Regen
Mo, 16.05. 2:00 0.0 l/m2 in 6 Std. -
So, 15.05. 20:00 0.0 l/m2 in 12 Std. -
So, 15.05. 14:00 0.0 l/m2 in 6 Std. -
Ortszeit Niederschlagsmenge Niederschlagsart
Di, 17.05. 10:00 0.0 l/m2 in 1 Std. -
Di, 17.05. 9:50 keine Meldung -
Di, 17.05. 9:40 keine Meldung -
Di, 17.05. 9:30 0.0 l/m2 in 1 Std. -
Di, 17.05. 9:20 keine Meldung -
Di, 17.05. 9:10 keine Meldung -
Di, 17.05. 9:00 0.0 l/m2 in 1 Std. -
Di, 17.05. 8:30 0.0 l/m2 in 1 Std. -
Di, 17.05. 8:00 0.0 l/m2 in 1 Std. -
Di, 17.05. 7:30 0.0 l/m2 in 1 Std. -
Di, 17.05. 7:00 0.0 l/m2 in 1 Std. -
Ortszeit Stärke Spitze Richtung
km/h Bft. km/h Grad Sektor
Di, 17.05. 8:00 0 0 11 - -
Di, 17.05. 2:00 4 1 22 210° SW
Mo, 16.05. 20:00 11 2 43 250° W
Mo, 16.05. 14:00 20 4 56 240° SW
Mo, 16.05. 8:00 2 1 17 110° O
Mo, 16.05. 2:00 4 1 25 340° N
So, 15.05. 20:00 14 3 32 60° NO
So, 15.05. 14:00 18 3 32 40° NO
Ortszeit Stärke Spitze Richtung
km/h Bft. km/h Grad Sektor
Di, 17.05. 10:00 4 1 7 20° N
Di, 17.05. 9:50 4 1 - 20° N
Di, 17.05. 9:40 4 1 - 10° N
Di, 17.05. 9:30 2 1 6 20° N
Di, 17.05. 9:20 2 1 - 20° N
Di, 17.05. 9:10 2 1 - 10° N
Di, 17.05. 9:00 2 1 6 30° NO
Di, 17.05. 8:30 2 1 6 120° SO
Di, 17.05. 8:00 0 0 4 - -
Di, 17.05. 7:30 0 0 4 - -
Di, 17.05. 7:00 4 1 7 80° O
Ortszeit Untergrenze Bedeckung Gattung
total tief tief mittel hoch
Di, 17.05. 8:00 9000 m 7/8 0/8 - - -
Di, 17.05. 2:00 - 0/8 0/8 - - -
Mo, 16.05. 20:00 3000 m 8/8 8/8 - - -
Mo, 16.05. 14:00 2700 m 7/8 1/8 - - -
Mo, 16.05. 8:00 4200 m 8/8 8/8 - - -
Mo, 16.05. 2:00 2700 m 8/8 4/8 - - -
So, 15.05. 20:00 10500 m 3/8 0/8 - - -
So, 15.05. 14:00 7200 m 7/8 0/8 - - -
Ortszeit Bedeckungsgrad in Achtel und Wolkenuntergrenze
Di, 17.05. 10:00 8(4800m)
Di, 17.05. 9:50 8(4800m)
Di, 17.05. 9:40 8
Di, 17.05. 9:30 6(4800m) 8(8100m)
Di, 17.05. 9:20 6(4800m) 8(8100m)
Di, 17.05. 9:10 8
Di, 17.05. 9:00 7(8400m)
Di, 17.05. 8:30 2(9000m) 4(10500m)
Di, 17.05. 8:00 5(9000m) 7(10500m) 7(10500m)
Di, 17.05. 7:30 4(9000m) 6(9000m) 8(10500m)
Di, 17.05. 7:00 2(8400m) 7(9000m)
Ortszeit Luftdruck NN (hPa) Tendenz (hPa in 3 Std.)
Di, 17.05. 8:00 1022 + 1,0
Di, 17.05. 2:00 1022 0,0
Mo, 16.05. 20:00 1019 + 0,6
Mo, 16.05. 14:00 1020 + 1,9
Mo, 16.05. 8:00 1016 + 0,9
Mo, 16.05. 2:00 1015 + 0,2
So, 15.05. 20:00 1014 - 1,2
So, 15.05. 14:00 1017 - 1,4
Ortszeit Luftdruck NN (hPa) Tendenz (hPa in 3 Std.)
Di, 17.05. 10:00 1022 + 0,4
Di, 17.05. 9:50 1022 keine Meldung
Di, 17.05. 9:40 1022 keine Meldung
Di, 17.05. 9:30 1022 + 0,6
Di, 17.05. 9:20 1022 keine Meldung
Di, 17.05. 9:10 1022 keine Meldung
Di, 17.05. 9:00 1022 + 0,7
Di, 17.05. 8:30 1022 + 0,9
Di, 17.05. 8:00 1022 + 1,0
Di, 17.05. 7:30 1022 + 1,0
Di, 17.05. 7:00 1022 + 0,8
Ortszeit Schneehöhe (cm)
Di, 17.05. 8:00 0
Di, 17.05. 2:00 0
Mo, 16.05. 20:00 0
Mo, 16.05. 14:00 0
Mo, 16.05. 8:00 0
Mo, 16.05. 2:00 0
So, 15.05. 20:00 0
So, 15.05. 14:00 0
Ortszeit Schneehöhe (cm)
Di, 17.05. 10:00 0
Di, 17.05. 9:50 0
Di, 17.05. 9:40 0
Di, 17.05. 9:30 0
Di, 17.05. 9:20 0
Di, 17.05. 9:10 0
Di, 17.05. 9:00 0
Di, 17.05. 8:30 0
Di, 17.05. 8:00 0
Di, 17.05. 7:30 0
Di, 17.05. 7:00 0
Link zu dieser Seite / Seite empfehlen

Das Wetter in ...